Regional Weather Roundup
Issued by NWS

Home | Current Version | Previous Version | Graphics & Text | Print | Product List | Glossary On
Versions: 1 2 3 4 5 6 7 8 9 10 11 12 13 14 15 16 17 18 19 20 21 22 23 24 25 26 27 28 29 30 31 32 33 34 35 36 37 38 39 40 41 42 43 44 45 46 47 48 49 50
000
ASUS43 KTOP 271659
RWRKS

WEATHER ROUNDUP FOR KANSAS
NATIONAL WEATHER SERVICE GOODLAND KS
1200 PM CDT TUE JUN 27 2017

NOTE:  "FAIR" INDICATES FEW OR NO CLOUDS BELOW 12,000 FEET WITH NO
SIGNIFICANT WEATHER AND/OR OBSTRUCTIONS TO VISIBILITY.

KSZ001>006-013>018-027>032-041>047-271800-
NORTHWEST KANSAS

CITY           SKY/WX    TMP DP  RH WIND       PRES   REMARKS
GOODLAND       SUNNY     72  63  73 SE14      29.90F
HAYS           SUNNY     83  69  62 S15G24    29.92F
HILL CITY      PTSUNNY   77  67  71 SE15      29.93F
RUSSELL        MOSUNNY   82  66  58 S17G26    29.93F
$$

KSZ061>065-074>080-084>089-271800-
SOUTHWEST KANSAS

CITY           SKY/WX    TMP DP  RH WIND       PRES   REMARKS
DODGE CITY     SUNNY     86  58  38 S22G30    29.95F
ELKHART          N/A     83  50  32 S16         N/A
GARDEN CITY    SUNNY     90  57  32 S22       29.93F
GREAT BEND     MOSUNNY   85  69  58 S20G26    29.94F
LIBERAL        SUNNY     86  59  39 S23       29.97F
$$

KSZ066>073-081>083-090>101-271800-
SOUTHEAST KANSAS

CITY           SKY/WX    TMP DP  RH WIND       PRES   REMARKS
CHANUTE        CLOUDY    76  67  73 E8        30.05F
COFFEYVILLE    PTSUNNY   77  65  66 S8        30.05F
HUTCHINSON     MOSUNNY   82  67  60 S16G24    29.97F
MEDICINE LODGE   N/A     87  67  51 S14G21    29.95F
NEWTON         SUNNY     75  68  78 S15       30.01F
PARSONS        CLOUDY    77  65  66 S6        30.06F
WICHITA INTL   MOSUNNY   80  71  74 S14       29.99F
WICHITA JABRA  SUNNY     76  69  79 S12       30.00F
WINFIELD       SUNNY     82  71  69 S15       30.02S
$$

KSZ007>012-019>026-033>040-048>060-102>105-271800-
NORTHEAST KANSAS

CITY           SKY/WX    TMP DP  RH WIND       PRES   REMARKS
CONCORDIA      CLOUDY    75  63  66 SE16G25   29.97F
EMPORIA        CLOUDY    75  66  73 S13       30.04F
LAWRENCE       PTSUNNY   74  63  68 SE12      30.06F
MANHATTAN      MOSUNNY   75  64  68 SE9       30.01F
OLATHE IND     MOSUNNY   75  60  59 SE14      30.08F
OLATHE EXE     MOSUNNY   74  61  63 SE12G21   30.08S
SALINA         PTSUNNY   77  66  68 SE15      29.96F
TOPEKA BILLARD PTSUNNY   75  65  70 SE15      30.05F
TOPEKA FORBES  PTSUNNY   76  65  68 SE12G21   30.05F
$$




USA.gov is the U.S. government's official web portal to all federal, state and local government web resources and services.